[[{"header":{"parameterUnit":"m.s-1","parameterCategory":2,"la1":30.2992,"la2":30.254,"lo1":-89.0895,"lo2":-89.0443,"dy":0.0025,"dx":0.0025,"nx":19,"ny":19,"refTime":"2026-03-22T09:00:00:Z","depth":"0","parameterNumber":2,"parameterNumberName":"U-component_of_CURRENTS"},"data":[0,0,0,0.1725,0.1724,0.1656,0.1656,0.152,0.1519,0,0,0,0,0,0,0,0,0,0,0,0.175,0.175,0.1725,0.1724,0.1656,0.1656,0.1521,0.1519,0,0,0,0,0,0,0,0,0,0,0,0.175,0.175,0.175,0.1724,0.1656,0.1656,0.1521,0.1581,0,0,0,0,0,0,0,0,0,0,0.1652,0.1661,0.175,0.175,0.1724,0.1657,0.1656,0.1585,0.1578,0.1541,0,0.154,0,0.1529,0.151,0.151,0,0,0,0.1713,0.1667,0.1676,0.175,0.1723,0.1657,0.1684,0.1581,0.1573,0.1531,0.1538,0.1533,0.1527,0.1509,0.1508,0.137,0.137,0,0,0.1716,0.1706,0.1682,0.1671,0.1716,0.1686,0.1682,0.1577,0.1555,0.1537,0.153,0.1524,0.1508,0.1507,0.1371,0.137,0,0,0,0.1735,0.1709,0.172,0.1677,0.167,0.1684,0.1679,0.1559,0.1571,0.1528,0.1523,0.1507,0.1506,0.1371,0.1371,0.1357,0,0,0,0.1737,0.1721,0.1722,0.1711,0.1673,0.1613,0.1664,0.1579,0.1567,0.1524,0.1507,0.1504,0.1372,0.1371,0.1359,0.1335,0,0,0,0.1752,0.1721,0.1724,0.1711,0.169,0.1616,0.162,0.1576,0.1563,0.1509,0.1504,0.1372,0.1371,0.136,0.1338,0.1329,0,0,0,0.173,0.1715,0.1723,0.17,0.1692,0.1634,0.162,0.1559,0.1513,0.1507,0.1372,0.1371,0.1361,0.1339,0.1331,0.129,0.128,0,0,0.1703,0.1711,0.1702,0.1709,0.1659,0.1642,0.1561,0.1503,0.1482,0.1402,0.1399,0.1358,0.1338,0.1329,0.1222,0.1214,0,0,0,0.1688,0.1673,0.166,0.1635,0.1609,0.1549,0.15,0.1468,0.1402,0.1452,0.1338,0.1324,0.1321,0.1298,0.1291,0.1156,0.1365,0.1365,0.1365,0.1617,0.1627,0.1583,0.1574,0.1533,0.1472,0.1419,0.1364,0.1361,0.1332,0.13,0.1261,0.1236,0.1231,0.1091,0.1293,0.1293,0.1293,0.1293,0.1567,0.1549,0.1527,0.1494,0.1455,0.1389,0.1319,0.1311,0.1243,0.1256,0.1254,0.1267,0.1223,0.1077,0.1292,0.1292,0.1292,0.1292,0.1292,0.1538,0.1526,0.1513,0.1459,0.1383,0.1336,0.1254,0.1232,0.1219,0.1198,0.1193,0.1193,0.1078,0.1216,0.1215,0.1215,0.1215,0.1215,0.1215,0.1523,0.1503,0.1466,0.141,0.1356,0.1292,0.1218,0.1188,0.1167,0.1153,0.1154,0.1029,0.1237,0.1256,0.1213,0.1213,0.1213,0.1214,0.1214,0.1484,0.1493,0.1431,0.1385,0.1268,0.1177,0.1149,0.1099,0.1085,0.1078,0.0925,0.1131,0.113,0.1135,0.115,0.1082,0.1082,0.1082,0.1082,0.1462,0.1462,0.1372,0.1289,0.1193,0.1116,0.0983,0.0917,0.0851,0.0775,0.0793,0.0781,0.0792,0.0771,0.0784,0.0791,0.0634,0.0633,0.0632,0.1419,0.1403,0.1324,0.1259,0.1144,0.1041,0.0878,0.0693,0.0599,0.0601,0.0607,0.0626,0.0598,0.0627,0.0591,0.062,0.0633,0,0]},{"header":{"parameterUnit":"m.s-1","parameterCategory":2,"la1":30.2992,"la2":30.254,"lo1":-89.0895,"lo2":-89.0443,"dy":0.0025,"dx":0.0025,"nx":19,"ny":19,"refTime":"2026-03-22T09:00:00:Z","depth":"0","parameterNumber":3,"parameterNumberName":"V-component_of_CURRENTS"},"data":[0,0,0,-0.2112,-0.2114,-0.2214,-0.2215,-0.2306,-0.2307,0,0,0,0,0,0,0,0,0,0,0,-0.2094,-0.2095,-0.2112,-0.2114,-0.2214,-0.2215,-0.2306,-0.2307,0,0,0,0,0,0,0,0,0,0,0,-0.2094,-0.2095,-0.2096,-0.2114,-0.2214,-0.2215,-0.2306,-0.2241,0,0,0,0,0,0,0,0,0,0,-0.2149,-0.2093,-0.2095,-0.2096,-0.2115,-0.2214,-0.2215,-0.2238,-0.2245,-0.2248,0,-0.2277,0,-0.2283,-0.2311,-0.2311,0,0,0,-0.2121,-0.2087,-0.2153,-0.2097,-0.2116,-0.2214,-0.2171,-0.2242,-0.225,-0.2256,-0.2278,-0.2281,-0.2284,-0.2312,-0.2312,-0.2282,-0.2282,0,0,-0.2115,-0.2072,-0.2148,-0.2159,-0.2158,-0.2168,-0.2174,-0.2247,-0.2238,-0.2278,-0.2283,-0.2286,-0.2312,-0.2313,-0.2283,-0.2282,0,0,0,-0.2095,-0.2067,-0.2132,-0.2155,-0.217,-0.217,-0.2178,-0.2234,-0.2268,-0.2284,-0.2287,-0.2312,-0.2313,-0.2284,-0.2283,-0.2155,0,0,0,-0.2092,-0.2056,-0.213,-0.2099,-0.2169,-0.2196,-0.2162,-0.2264,-0.2271,-0.2287,-0.2313,-0.2314,-0.2285,-0.2283,-0.2161,-0.207,0,0,0,-0.2087,-0.2053,-0.208,-0.2097,-0.214,-0.2196,-0.2232,-0.2266,-0.2272,-0.2311,-0.2314,-0.2286,-0.2284,-0.2166,-0.208,-0.1885,0,0,0,-0.2019,-0.2026,-0.2079,-0.2081,-0.214,-0.2187,-0.2232,-0.226,-0.229,-0.2313,-0.2285,-0.2283,-0.2167,-0.2085,-0.1893,-0.1624,-0.1566,0,0,-0.1987,-0.2021,-0.2025,-0.2074,-0.2096,-0.2172,-0.214,-0.2202,-0.2254,-0.2262,-0.2262,-0.2159,-0.208,-0.1887,-0.151,-0.1453,0,0,0,-0.1987,-0.1985,-0.2009,-0.2027,-0.2092,-0.207,-0.2142,-0.2155,-0.2152,-0.2262,-0.2154,-0.2107,-0.1989,-0.1845,-0.1801,-0.1832,-0.2274,-0.2274,-0.2274,-0.1832,-0.1893,-0.1879,-0.194,-0.1955,-0.1998,-0.1979,-0.1996,-0.2088,-0.205,-0.2001,-0.1763,-0.1611,-0.1574,-0.1612,-0.2018,-0.2018,-0.2018,-0.2017,-0.1754,-0.1729,-0.1768,-0.1779,-0.1783,-0.176,-0.1772,-0.181,-0.1729,-0.1868,-0.1759,-0.1717,-0.1517,-0.1576,-0.2009,-0.201,-0.2011,-0.2012,-0.2013,-0.1646,-0.1634,-0.1657,-0.1633,-0.1568,-0.1588,-0.1454,-0.1523,-0.1556,-0.1488,-0.1274,-0.1274,-0.1319,-0.1411,-0.141,-0.1409,-0.1408,-0.1407,-0.1406,-0.1512,-0.1535,-0.1492,-0.1475,-0.1415,-0.132,-0.1265,-0.1166,-0.1034,-0.1066,-0.1064,-0.1213,-0.1576,-0.1593,-0.1386,-0.139,-0.1392,-0.1394,-0.1396,-0.1379,-0.1397,-0.1331,-0.1279,-0.1141,-0.0943,-0.0904,-0.0591,-0.0503,-0.0355,-0.0596,-0.0821,-0.0809,-0.0845,-0.0843,-0.0454,-0.0454,-0.0454,-0.0454,-0.1265,-0.1278,-0.1158,-0.1043,-0.0868,-0.0753,-0.0361,-0.0184,-0.0113,-0.0116,-0.0233,-0.0359,-0.0396,-0.0374,-0.042,-0.0416,0.0072,0.0072,0.0072,-0.1169,-0.1149,-0.1016,-0.0928,-0.0737,-0.0496,-0.0138,0.0041,0.01,0.0073,-0.0325,-0.0347,-0.0574,-0.0629,-0.0643,-0.0705,-0.072,0,0]}],[{"header":{"parameterUnit":"m.s-1","parameterCategory":2,"la1":30.2992,"la2":30.254,"lo1":-89.0895,"lo2":-89.0443,"dy":0.0025,"dx":0.0025,"nx":19,"ny":19,"refTime":"2026-03-22T09:00:00:Z","depth":"2","parameterNumber":2,"parameterNumberName":"U-component_of_CURRENTS"},"data":[0,0,0,0.0887,0.0888,0.0936,0.0937,0.1041,0.1042,0,0,0,0,0,0,0,0,0,0,0,0.0883,0.0884,0.0887,0.0888,0.0936,0.0937,0.1041,0.1042,0,0,0,0,0,0,0,0,0,0,0,0.0883,0.0884,0.0885,0.0889,0.0936,0.0937,0.1041,0.0993,0,0,0,0,0,0,0,0,0,0,0.0941,0.0937,0.0884,0.0885,0.0889,0.0936,0.0937,0.0991,0.0996,0.1032,0,0.1051,0,0.1046,0.105,0.1051,0,0,0,0.0888,0.0932,0.0939,0.0885,0.0889,0.0936,0.0914,0.0994,0.1,0.104,0.1052,0.1056,0.1048,0.1051,0.1051,0.1201,0.1201,0,0,0.0885,0.0897,0.0934,0.0943,0.0919,0.0913,0.0916,0.0997,0.1016,0.1053,0.1058,0.1049,0.1052,0.1053,0.12,0.1201,0,0,0,0.0878,0.0895,0.0899,0.094,0.0944,0.0914,0.0918,0.1013,0.1013,0.1059,0.1051,0.1052,0.1054,0.1199,0.12,0.1179,0,0,0,0.0876,0.0891,0.0898,0.0906,0.0942,0.0974,0.0932,0.1007,0.1016,0.105,0.1052,0.1055,0.1198,0.12,0.1178,0.1182,0,0,0,0.0878,0.0891,0.09,0.0907,0.0925,0.0972,0.0977,0.1009,0.1011,0.1051,0.1055,0.1198,0.12,0.1177,0.118,0.1179,0,0,0,0.0882,0.0898,0.0901,0.0921,0.0925,0.0951,0.0976,0.1008,0.1041,0.1053,0.1199,0.12,0.1176,0.1179,0.1178,0.1046,0.1039,0,0,0.0895,0.09,0.0909,0.0911,0.0929,0.0943,0.0994,0.1049,0.1084,0.1173,0.1176,0.1178,0.118,0.1178,0.1147,0.1137,0,0,0,0.0907,0.0911,0.0918,0.0936,0.0956,0.1009,0.1048,0.1073,0.115,0.1113,0.122,0.1223,0.1222,0.1142,0.1135,0.1209,0.1208,0.1208,0.1208,0.0901,0.0913,0.0934,0.0965,0.1006,0.1057,0.1095,0.1151,0.1173,0.1214,0.1236,0.1265,0.1182,0.1175,0.1265,0.1265,0.1265,0.1264,0.1264,0.0898,0.092,0.0956,0.0988,0.1056,0.1107,0.1179,0.1193,0.1252,0.1268,0.1266,0.1162,0.1164,0.1264,0.1264,0.1264,0.1264,0.1264,0.1264,0.0883,0.091,0.093,0.1001,0.1069,0.1143,0.1162,0.121,0.1251,0.1259,0.1178,0.1176,0.1229,0.1258,0.1258,0.1258,0.1258,0.1258,0.1258,0.089,0.0912,0.0941,0.1017,0.1056,0.111,0.1158,0.1158,0.116,0.1167,0.1165,0.1263,0.1263,0.1231,0.1258,0.1258,0.1258,0.1258,0.1258,0.0891,0.0905,0.0955,0.0987,0.1053,0.1011,0.1078,0.1026,0.1051,0.1022,0.1104,0.1107,0.1102,0.1107,0.1073,0.1057,0.1057,0.1057,0.1057,0.0891,0.0898,0.0958,0.0983,0.0995,0.0977,0.0838,0.0769,0.0817,0.0816,0.0826,0.0782,0.0795,0.0771,0.0784,0.0743,0.0642,0.0641,0.064,0.0879,0.0927,0.0935,0.097,0.096,0.0882,0.0667,0.0469,0.0474,0.0625,0.077,0.1026,0.0987,0.0998,0.0985,0.0996,0.094,0,0]},{"header":{"parameterUnit":"m.s-1","parameterCategory":2,"la1":30.2992,"la2":30.254,"lo1":-89.0895,"lo2":-89.0443,"dy":0.0025,"dx":0.0025,"nx":19,"ny":19,"refTime":"2026-03-22T09:00:00:Z","depth":"2","parameterNumber":3,"parameterNumberName":"V-component_of_CURRENTS"},"data":[0,0,0,0.0416,0.0415,0.0365,0.0365,0.039,0.0391,0,0,0,0,0,0,0,0,0,0,0,0.0423,0.0423,0.0416,0.0415,0.0365,0.0365,0.039,0.0391,0,0,0,0,0,0,0,0,0,0,0,0.0424,0.0423,0.0422,0.0415,0.0365,0.0365,0.039,0.0404,0,0,0,0,0,0,0,0,0,0,0.0441,0.0424,0.0423,0.0422,0.0414,0.0366,0.0365,0.0404,0.0404,0.0439,0,0.0422,0,0.0415,0.0395,0.0395,0,0,0,0.0411,0.0424,0.0426,0.0422,0.0414,0.0366,0.0387,0.0403,0.0403,0.0439,0.0422,0.0422,0.0415,0.0395,0.0395,0.0493,0.0494,0,0,0.0414,0.0405,0.0426,0.0425,0.0392,0.0388,0.0385,0.0402,0.0391,0.0422,0.0423,0.0416,0.0395,0.0396,0.0493,0.0493,0,0,0,0.0424,0.0406,0.0405,0.0425,0.0413,0.0387,0.0383,0.0389,0.0393,0.0423,0.0416,0.0396,0.0396,0.0492,0.0493,0.0433,0,0,0,0.0426,0.0413,0.0406,0.0399,0.0412,0.0386,0.0371,0.0391,0.0393,0.0416,0.0396,0.0397,0.0491,0.0492,0.0433,0.0324,0,0,0,0.0427,0.0413,0.0407,0.0399,0.0381,0.0385,0.0388,0.039,0.039,0.0395,0.0397,0.0491,0.0492,0.0433,0.0328,0.0382,0,0,0,0.0421,0.041,0.0406,0.0395,0.0382,0.0401,0.0387,0.0381,0.0384,0.0396,0.0491,0.0493,0.0433,0.033,0.0383,0.0439,0.0439,0,0,0.0412,0.0408,0.0406,0.0403,0.0424,0.0408,0.043,0.0411,0.0426,0.049,0.0491,0.0433,0.0328,0.0382,0.0525,0.0522,0,0,0,0.0408,0.0407,0.0412,0.0417,0.0432,0.0379,0.0416,0.0441,0.0449,0.0435,0.0481,0.0416,0.0452,0.049,0.0489,0.05,0.05,0.0499,0.0499,0.0399,0.0414,0.0432,0.0437,0.0404,0.0403,0.0384,0.0424,0.0482,0.0482,0.0406,0.0443,0.0486,0.0485,0.0496,0.0495,0.0495,0.0495,0.0495,0.0427,0.0445,0.0429,0.0432,0.0378,0.0373,0.0333,0.0348,0.0404,0.0416,0.0459,0.047,0.048,0.0491,0.0492,0.0492,0.0493,0.0493,0.0493,0.0448,0.0458,0.0458,0.0443,0.0352,0.0273,0.025,0.0231,0.0286,0.0292,0.0416,0.0418,0.0374,0.0355,0.0355,0.0355,0.0354,0.0354,0.0354,0.046,0.0476,0.0459,0.0418,0.0358,0.0236,0.0177,0.0242,0.0282,0.0308,0.0312,0.0396,0.0401,0.0369,0.0351,0.0351,0.0352,0.0352,0.0352,0.0499,0.0491,0.0447,0.0406,0.028,0.0262,0.0207,0.0311,0.037,0.0409,0.0379,0.0379,0.0402,0.0406,0.0376,0.0361,0.0361,0.0361,0.0361,0.0519,0.0525,0.0409,0.0311,0.0261,0.0214,0.0327,0.0353,0.0384,0.0343,0.0344,0.0385,0.0387,0.041,0.0414,0.0385,0.0372,0.0372,0.0371,0.057,0.0498,0.0418,0.0301,0.0226,0.0267,0.0353,0.0313,0.0298,0.0366,0.0286,0.0373,0.0439,0.0439,0.0482,0.0485,0.0442,0,0]}],[{"header":{"parameterUnit":"m.s-1","parameterCategory":2,"la1":30.2992,"la2":30.254,"lo1":-89.0895,"lo2":-89.0443,"dy":0.0025,"dx":0.0025,"nx":19,"ny":19,"refTime":"2026-03-22T09:00:00:Z","depth":"4","parameterNumber":2,"parameterNumberName":"U-component_of_CURRENTS"},"data":[0,0,0,-0.0396,-0.0397,-0.0439,-0.0439,-0.0294,-0.0292,0,0,0,0,0,0,0,0,0,0,0,-0.0382,-0.0382,-0.0396,-0.0397,-0.0439,-0.0439,-0.0294,-0.0292,0,0,0,0,0,0,0,0,0,0,0,-0.0382,-0.0382,-0.0383,-0.0397,-0.0439,-0.0439,-0.0295,-0.0311,0,0,0,0,0,0,0,0,0,0,-0.0295,-0.0317,-0.0382,-0.0383,-0.0397,-0.0439,-0.0439,-0.0314,-0.031,-0.0219,0,-0.0235,0,-0.0255,-0.0278,-0.0277,0,0,0,-0.0393,-0.0321,-0.0327,-0.0383,-0.0398,-0.0439,-0.0419,-0.0314,-0.0309,-0.0212,-0.0233,-0.0229,-0.0253,-0.0277,-0.0276,-0.0008,-0.0007,0,0,-0.0391,-0.0386,-0.0331,-0.0324,-0.0415,-0.0418,-0.042,-0.0313,-0.0308,-0.0233,-0.0227,-0.025,-0.0275,-0.0274,-0.0009,-0.0008,0,0,0,-0.0387,-0.0385,-0.0398,-0.0329,-0.035,-0.0419,-0.0422,-0.0313,-0.0317,-0.0226,-0.0249,-0.0274,-0.0272,-0.0011,-0.0009,0.0079,0,0,0,-0.0385,-0.0382,-0.0397,-0.0394,-0.0354,-0.036,-0.0424,-0.0325,-0.0314,-0.0249,-0.0274,-0.027,-0.0012,-0.001,0.0073,0.0043,0,0,0,-0.0379,-0.0381,-0.0389,-0.0394,-0.0414,-0.0364,-0.0363,-0.0325,-0.0326,-0.0277,-0.0269,-0.0013,-0.001,0.0068,0.0037,0.0029,0,0,0,-0.0368,-0.0384,-0.0389,-0.0395,-0.0413,-0.0364,-0.0364,-0.0292,-0.0241,-0.0273,-0.0012,-0.0009,0.0067,0.0033,0.0026,-0.0084,0,0,0,-0.038,-0.0385,-0.0384,-0.039,-0.0374,-0.0357,-0.0261,-0.0185,-0.0159,-0.0036,-0.0032,0.0075,0.0037,0.0028,0.011,0,0,0,0,-0.0382,-0.0386,-0.0383,-0.0372,-0.0334,-0.0252,-0.0174,-0.0127,0.0002,-0.0119,0.0117,0.0089,0.0081,0.0013,0.0007,0.0007,0.0006,0.0006,0.0005,-0.0399,-0.0377,-0.0356,-0.0306,-0.0247,-0.0134,-0.0064,0.0035,0.0087,0.0175,0.0196,0.0287,0.0229,0.027,0.027,0.0271,0.0271,0.0272,0.0272,-0.0403,-0.038,-0.0312,-0.027,-0.0154,-0.0028,0.0105,0.0164,0.0276,0.0301,0.0291,0.0155,0.0282,0.028,0.0278,0.0277,0.0276,0.0276,0.0275,-0.0401,-0.0384,-0.0341,-0.0251,-0.0108,0.004,0.0106,0.0221,0.0315,0.0352,0.0267,0.0313,0.0261,0.0378,0.0378,0.0378,0.0378,0.0378,0.0378,-0.0416,-0.0383,-0.0353,-0.0243,-0.016,-0.005,0.0107,0.012,0.0232,0.0305,0.0376,0.032,0.0317,0.0266,0.0376,0.0377,0.0377,0.0377,0.0377,-0.0437,-0.0444,-0.0403,-0.0353,-0.0229,-0.0157,-0.0052,0.0042,0.007,0.0098,0.0262,0.0268,0.0195,0.0194,0.0135,0.021,0.0209,0.0208,0,-0.0473,-0.0472,-0.0451,-0.0414,-0.0342,-0.0233,-0.0188,-0.0135,0.0014,0.0079,0.0038,0.0222,0.0229,0.014,0.0137,0.0065,0,0,0,-0.0511,-0.0492,-0.0484,-0.045,-0.0361,-0.0263,-0.0163,-0.0097,0.0017,-0.0025,0.018,0.0187,0.0106,0.0372,0.0272,0.0268,0.0179,0,0]},{"header":{"parameterUnit":"m.s-1","parameterCategory":2,"la1":30.2992,"la2":30.254,"lo1":-89.0895,"lo2":-89.0443,"dy":0.0025,"dx":0.0025,"nx":19,"ny":19,"refTime":"2026-03-22T09:00:00:Z","depth":"4","parameterNumber":3,"parameterNumberName":"V-component_of_CURRENTS"},"data":[0,0,0,0.0523,0.0524,0.06,0.06,0.0739,0.074,0,0,0,0,0,0,0,0,0,0,0,0.0508,0.0508,0.0523,0.0524,0.06,0.06,0.0739,0.074,0,0,0,0,0,0,0,0,0,0,0,0.0507,0.0508,0.0509,0.0524,0.0599,0.06,0.0738,0.0674,0,0,0,0,0,0,0,0,0,0,0.0597,0.0568,0.0508,0.0509,0.0525,0.0599,0.06,0.067,0.0678,0.0713,0,0.0725,0,0.0727,0.0749,0.075,0,0,0,0.0537,0.0561,0.0582,0.0509,0.0525,0.0599,0.0569,0.0674,0.0683,0.0723,0.0727,0.0732,0.0729,0.075,0.0751,0.0818,0.0818,0,0,0.0533,0.0523,0.0576,0.0587,0.0547,0.0567,0.0571,0.0679,0.069,0.0727,0.0735,0.0732,0.0751,0.0752,0.0819,0.0818,0,0,0,0.0512,0.052,0.0538,0.0582,0.0588,0.0568,0.0574,0.0685,0.0691,0.0736,0.0733,0.0752,0.0753,0.0819,0.0818,0.0903,0,0,0,0.051,0.0507,0.0536,0.0532,0.0585,0.063,0.0578,0.0684,0.0696,0.0733,0.0752,0.0755,0.0819,0.0819,0.0902,0.0895,0,0,0,0.0504,0.0506,0.0516,0.0531,0.0556,0.0628,0.0641,0.0687,0.0694,0.075,0.0755,0.0819,0.0819,0.09,0.0893,0.0815,0,0,0,0.0491,0.0501,0.0516,0.053,0.0556,0.0639,0.064,0.0748,0.081,0.0752,0.0819,0.0818,0.09,0.0892,0.0815,0.0667,0,0,0,0.0492,0.0501,0.0509,0.0523,0.0601,0.063,0.071,0.081,0.0793,0.079,0.0792,0.0902,0.0893,0.0815,0.063,0,0,0,0,0.0501,0.0511,0.0528,0.0585,0.0652,0.0724,0.082,0.0819,0.085,0.0818,0.0864,0.0854,0.0803,0.0717,0.0815,0.0815,0.0815,0.0815,0.0816,0.0487,0.0537,0.0596,0.0673,0.073,0.0834,0.0859,0.0869,0.0897,0.0906,0.0899,0.0857,0.0772,0.089,0.089,0.0891,0.0891,0.0891,0.0891,0.0509,0.0553,0.0651,0.0738,0.0844,0.0932,0.093,0.0948,0.0898,0.0919,0.0866,0.0783,0.0899,0.0897,0.0896,0.0895,0.0895,0.0894,0.0894,0.0501,0.0542,0.0646,0.0803,0.091,0.0969,0.0917,0.0945,0.093,0.0914,0.0743,0.0856,0.0872,0.0881,0.088,0.088,0.088,0.088,0.0879,0.0472,0.0577,0.0685,0.0825,0.0889,0.0907,0.0906,0.0825,0.082,0.0762,0.0907,0.085,0.0851,0.0866,0.0874,0.0875,0.0876,0.0876,0.0877,0.0435,0.0529,0.0624,0.0714,0.0785,0.0754,0.0774,0.0636,0.0533,0.0444,0.0646,0.0659,0.0583,0.0588,0.0593,0.0519,0.0517,0.0515,0,0.0405,0.0458,0.0585,0.0636,0.0605,0.0631,0.0453,0.038,0.0394,0.0436,0.0494,0.0729,0.0737,0.0657,0.0658,0.0665,0,0,0,0.0384,0.0421,0.0475,0.0567,0.0531,0.0393,0.0389,0.0352,0.0453,0.0273,0.0466,0.0479,0.06,0.0858,0.0769,0.077,0.0788,0,0]}]]